Year,Month,Day,Hour,Minute,Value (Times are PST for barometer in hPa)
2021,12,03,00,00,1028.91
2021,12,03,00,01,1028.94
2021,12,03,00,02,1028.95
2021,12,03,00,03,1028.98
2021,12,03,00,04,1028.99
2021,12,03,00,05,1028.96
2021,12,03,00,06,1028.91
2021,12,03,00,07,1028.89
2021,12,03,00,08,1028.86
2021,12,03,00,09,1028.85
2021,12,03,00,10,1028.88
2021,12,03,00,11,1028.91
2021,12,03,00,12,1028.87
2021,12,03,00,13,1028.85
2021,12,03,00,14,1028.85
2021,12,03,00,15,1028.78
2021,12,03,00,16,1028.70
2021,12,03,00,17,1028.66
2021,12,03,00,18,1028.60
2021,12,03,00,19,1028.53
2021,12,03,00,20,1028.51
2021,12,03,00,21,1028.49
2021,12,03,00,22,1028.50
2021,12,03,00,23,1028.59
2021,12,03,00,24,1028.69
2021,12,03,00,25,1028.72
2021,12,03,00,26,1028.67
2021,12,03,00,27,1028.65
2021,12,03,00,28,1028.60
2021,12,03,00,29,1028.53
2021,12,03,00,30,1028.56
2021,12,03,00,31,1028.21
2021,12,03,00,32,1027.89
2021,12,03,00,33,1027.81
2021,12,03,00,34,1027.45
2021,12,03,00,35,1027.32
2021,12,03,00,36,1027.58
2021,12,03,00,37,1027.39
2021,12,03,00,38,1027.26
2021,12,03,00,39,1028.02
2021,12,03,00,40,1028.52
2021,12,03,00,41,1028.63
2021,12,03,00,42,1028.67
2021,12,03,00,43,1028.68
2021,12,03,00,44,1028.66
2021,12,03,00,45,1028.58
2021,12,03,00,46,1028.55
2021,12,03,00,47,1028.55
2021,12,03,00,48,1028.55
2021,12,03,00,49,1028.52
2021,12,03,00,50,1028.54
2021,12,03,00,51,1028.52
2021,12,03,00,52,1028.49
2021,12,03,00,53,1028.41
2021,12,03,00,54,1028.36
2021,12,03,00,55,1028.35
2021,12,03,00,56,1028.37
2021,12,03,00,57,1028.38
2021,12,03,00,58,1028.40
2021,12,03,00,59,1028.39
2021,12,03,01,00,1028.36
2021,12,03,01,01,1028.37
2021,12,03,01,02,1028.36
2021,12,03,01,03,1028.32
2021,12,03,01,04,1028.34
2021,12,03,01,05,1028.30
2021,12,03,01,06,1028.28
2021,12,03,01,07,1028.28
2021,12,03,01,08,1028.28
2021,12,03,01,09,1028.28
2021,12,03,01,10,1028.35
2021,12,03,01,11,1028.43
2021,12,03,01,12,1028.47
2021,12,03,01,13,1028.48
2021,12,03,01,14,1028.50
2021,12,03,01,15,1028.51
2021,12,03,01,16,1028.44
2021,12,03,01,17,1028.41
2021,12,03,01,18,1028.37
2021,12,03,01,19,1028.35
2021,12,03,01,20,1028.37
2021,12,03,01,21,1028.38
2021,12,03,01,22,1028.38
2021,12,03,01,23,1028.40
2021,12,03,01,24,1028.39
2021,12,03,01,25,1028.38
2021,12,03,01,26,1028.36
2021,12,03,01,27,1028.37
2021,12,03,01,28,1028.40
2021,12,03,01,29,1028.41
2021,12,03,01,30,1028.41
2021,12,03,01,31,1028.39
2021,12,03,01,32,1028.38
2021,12,03,01,33,1028.38
2021,12,03,01,34,1028.43
2021,12,03,01,35,1028.47
2021,12,03,01,36,1028.50
2021,12,03,01,37,1028.51
2021,12,03,01,38,1028.51
2021,12,03,01,39,1028.49
2021,12,03,01,40,1028.50
2021,12,03,01,41,1028.47
2021,12,03,01,42,1028.45
2021,12,03,01,43,1028.47
2021,12,03,01,44,1028.43
2021,12,03,01,45,1028.34
2021,12,03,01,46,1028.31
2021,12,03,01,47,1028.34
2021,12,03,01,48,1028.37
2021,12,03,01,49,1028.14
2021,12,03,01,50,1027.92
2021,12,03,01,51,1027.80
2021,12,03,01,52,1027.95
2021,12,03,01,53,1027.86
2021,12,03,01,54,1027.43
2021,12,03,01,55,1027.40
2021,12,03,01,56,1027.73
2021,12,03,01,57,1028.26
2021,12,03,01,58,1028.63
2021,12,03,01,59,1028.74
2021,12,03,02,00,1028.75
2021,12,03,02,01,1028.70
2021,12,03,02,02,1028.64
2021,12,03,02,03,1028.64
2021,12,03,02,04,1028.65
2021,12,03,02,05,1028.65
2021,12,03,02,06,1028.65
2021,12,03,02,07,1028.63
2021,12,03,02,08,1028.64
2021,12,03,02,09,1028.60
2021,12,03,02,10,1028.61
2021,12,03,02,11,1028.62
2021,12,03,02,12,1028.62
2021,12,03,02,13,1028.52
2021,12,03,02,14,1028.48
2021,12,03,02,15,1028.48
2021,12,03,02,16,1028.48
2021,12,03,02,17,1028.48
2021,12,03,02,18,1028.50
2021,12,03,02,19,1028.47
2021,12,03,02,20,1028.38
2021,12,03,02,21,1028.32
2021,12,03,02,22,1028.34
2021,12,03,02,23,1028.35
2021,12,03,02,24,1028.32
2021,12,03,02,25,1028.31
2021,12,03,02,26,1028.34
2021,12,03,02,27,1028.35
2021,12,03,02,28,1028.39
2021,12,03,02,29,1028.41
2021,12,03,02,30,1028.44
2021,12,03,02,31,1028.49
2021,12,03,02,32,1028.54
2021,12,03,02,33,1028.60
2021,12,03,02,34,1028.64
2021,12,03,02,35,1028.65
2021,12,03,02,36,1028.65
2021,12,03,02,37,1028.67
2021,12,03,02,38,1028.68
2021,12,03,02,39,1028.64
2021,12,03,02,40,1028.59
2021,12,03,02,41,1028.58
2021,12,03,02,42,1028.58
2021,12,03,02,43,1028.56
2021,12,03,02,44,1028.52
2021,12,03,02,45,1028.49
2021,12,03,02,46,1028.48
2021,12,03,02,47,1028.48
2021,12,03,02,48,1028.50
2021,12,03,02,49,1028.49
2021,12,03,02,50,1028.50
2021,12,03,02,51,1028.54
2021,12,03,02,52,1028.55
2021,12,03,02,53,1028.52
2021,12,03,02,54,1028.56
2021,12,03,02,55,1028.53
2021,12,03,02,56,1028.49
2021,12,03,02,57,1028.48
2021,12,03,02,58,1028.46
2021,12,03,02,59,1028.49
2021,12,03,03,00,1028.51
2021,12,03,03,01,1028.51
2021,12,03,03,02,1028.56
2021,12,03,03,06,1028.65
2021,12,03,03,07,1028.65
2021,12,03,03,08,1028.65
2021,12,03,03,09,1028.65
2021,12,03,03,10,1028.62
2021,12,03,03,11,1028.56
2021,12,03,03,12,1028.52
2021,12,03,03,13,1028.51
2021,12,03,03,14,1028.51
2021,12,03,03,15,1028.51
2021,12,03,03,16,1028.54
2021,12,03,03,17,1028.61
2021,12,03,03,18,1028.64
2021,12,03,03,19,1028.68
2021,12,03,03,20,1028.68
2021,12,03,03,21,1028.68
2021,12,03,03,22,1028.74
2021,12,03,03,23,1028.75
2021,12,03,03,24,1028.75
2021,12,03,03,25,1028.75
2021,12,03,03,26,1028.75
2021,12,03,03,27,1028.75
2021,12,03,03,28,1028.69
2021,12,03,03,29,1028.68
2021,12,03,03,30,1028.66
2021,12,03,03,31,1028.59
2021,12,03,03,32,1028.58
2021,12,03,03,33,1028.61
2021,12,03,03,34,1028.59
2021,12,03,03,35,1028.61
2021,12,03,03,36,1028.59
2021,12,03,03,37,1028.52
2021,12,03,03,38,1028.54
2021,12,03,03,39,1028.52
2021,12,03,03,40,1028.51
2021,12,03,03,41,1028.48
2021,12,03,03,42,1028.45
2021,12,03,03,43,1028.50
2021,12,03,03,44,1028.51
2021,12,03,03,45,1028.54
2021,12,03,03,46,1028.52
2021,12,03,03,47,1028.48
2021,12,03,03,48,1028.48
2021,12,03,03,49,1028.45
2021,12,03,03,50,1028.48
2021,12,03,03,51,1028.46
2021,12,03,03,52,1028.42
2021,12,03,03,53,1028.38
2021,12,03,03,54,1028.35
2021,12,03,03,55,1028.35
2021,12,03,03,56,1028.32
2021,12,03,03,57,1028.28
2021,12,03,03,58,1028.22
2021,12,03,03,59,1028.21
2021,12,03,04,00,1028.19
2021,12,03,04,01,1028.23
2021,12,03,04,02,1028.24
2021,12,03,04,03,1028.27
2021,12,03,04,04,1028.31
2021,12,03,04,05,1028.34
2021,12,03,04,06,1028.29
2021,12,03,04,07,1028.30
2021,12,03,04,08,1028.34
2021,12,03,04,09,1028.32
2021,12,03,04,10,1028.34
2021,12,03,04,11,1028.29
2021,12,03,04,12,1028.25
2021,12,03,04,13,1028.21
2021,12,03,04,14,1028.27
2021,12,03,04,15,1028.28
2021,12,03,04,16,1028.34
2021,12,03,04,17,1028.35
2021,12,03,04,18,1028.38
2021,12,03,04,19,1028.40
2021,12,03,04,20,1028.36
2021,12,03,04,21,1028.35
2021,12,03,04,22,1028.35
2021,12,03,04,23,1028.35
2021,12,03,04,24,1028.32
2021,12,03,04,25,1028.25
2021,12,03,04,26,1028.19
2021,12,03,04,27,1028.15
2021,12,03,04,28,1028.14
2021,12,03,04,29,1028.12
2021,12,03,04,30,1028.17
2021,12,03,04,31,1028.15
2021,12,03,04,32,1028.17
2021,12,03,04,33,1028.20
2021,12,03,04,34,1028.23
2021,12,03,04,35,1028.33
2021,12,03,04,36,1028.38
2021,12,03,04,37,1028.35
2021,12,03,04,38,1028.35
2021,12,03,04,39,1028.35
2021,12,03,04,40,1028.43
2021,12,03,04,41,1028.48
2021,12,03,04,42,1028.50
2021,12,03,04,43,1028.51
2021,12,03,04,44,1028.51
2021,12,03,04,45,1028.46
2021,12,03,04,46,1028.39
2021,12,03,04,47,1028.36
2021,12,03,04,48,1028.35
2021,12,03,04,49,1028.29
2021,12,03,04,50,1028.25
2021,12,03,04,51,1028.24
2021,12,03,04,52,1028.30
2021,12,03,04,53,1028.31
2021,12,03,04,54,1028.34
2021,12,03,04,55,1028.35
2021,12,03,04,56,1028.35
2021,12,03,04,57,1028.40
2021,12,03,04,58,1028.41
2021,12,03,04,59,1028.49
2021,12,03,05,00,1028.51
2021,12,03,05,01,1028.54
2021,12,03,05,02,1028.55
2021,12,03,05,03,1028.55
2021,12,03,05,04,1028.43
2021,12,03,05,05,1028.39
2021,12,03,05,06,1028.38
2021,12,03,05,07,1028.38
2021,12,03,05,08,1028.44
2021,12,03,05,09,1028.47
2021,12,03,05,10,1028.50
2021,12,03,05,11,1028.49
2021,12,03,05,12,1028.46
2021,12,03,05,13,1028.45
2021,12,03,05,14,1028.45
2021,12,03,05,15,1028.47
2021,12,03,05,16,1028.45
2021,12,03,05,17,1028.36
2021,12,03,05,18,1028.26
2021,12,03,05,19,1028.16
2021,12,03,05,20,1028.17
2021,12,03,05,21,1028.20
2021,12,03,05,22,1028.24
2021,12,03,05,23,1028.24
2021,12,03,05,24,1028.27
2021,12,03,05,25,1028.36
2021,12,03,05,26,1028.38
2021,12,03,05,27,1028.38
2021,12,03,05,28,1028.44
2021,12,03,05,29,1028.37
2021,12,03,05,30,1028.37
2021,12,03,05,31,1028.38
2021,12,03,05,32,1028.40
2021,12,03,05,33,1028.41
2021,12,03,05,34,1028.36
2021,12,03,05,35,1028.35
2021,12,03,05,36,1028.29
2021,12,03,05,37,1028.22
2021,12,03,05,38,1028.15
2021,12,03,05,39,1028.17
2021,12,03,05,40,1028.23
2021,12,03,05,41,1028.16
2021,12,03,05,42,1028.08
2021,12,03,05,43,1028.05
2021,12,03,05,44,1028.02
2021,12,03,05,45,1028.03
2021,12,03,05,46,1027.98
2021,12,03,05,47,1027.91
2021,12,03,05,48,1027.88
2021,12,03,05,49,1027.93
2021,12,03,05,50,1027.94
2021,12,03,05,51,1027.94
2021,12,03,05,52,1027.96
2021,12,03,05,53,1028.03
2021,12,03,05,54,1028.06
2021,12,03,05,55,1028.13
2021,12,03,05,56,1028.08
2021,12,03,05,57,1028.13
2021,12,03,05,58,1028.14
2021,12,03,05,59,1028.14
2021,12,03,06,00,1028.12
2021,12,03,06,01,1028.14
2021,12,03,06,02,1028.12
2021,12,03,06,03,1028.08
2021,12,03,06,04,1028.04
2021,12,03,06,05,1027.93
2021,12,03,06,06,1027.74
2021,12,03,06,07,1027.70
2021,12,03,06,08,1027.76
2021,12,03,06,09,1027.79
2021,12,03,06,10,1027.83
2021,12,03,06,11,1027.86
2021,12,03,06,12,1027.89
2021,12,03,06,13,1027.90
2021,12,03,06,14,1027.88
2021,12,03,06,15,1027.81
2021,12,03,06,16,1027.86
2021,12,03,06,17,1027.85
2021,12,03,06,18,1027.89
2021,12,03,06,19,1027.93
2021,12,03,06,20,1027.94
2021,12,03,06,21,1027.91
2021,12,03,06,22,1027.90
2021,12,03,06,23,1027.88
2021,12,03,06,24,1027.87
2021,12,03,06,25,1027.87
2021,12,03,06,26,1027.81
2021,12,03,06,27,1027.85
2021,12,03,06,28,1027.79
2021,12,03,06,29,1027.83
2021,12,03,06,30,1027.76
2021,12,03,06,31,1027.74
2021,12,03,06,32,1027.71
2021,12,03,06,33,1027.73
2021,12,03,06,34,1027.76
2021,12,03,06,35,1027.74
2021,12,03,06,36,1027.79
2021,12,03,06,37,1027.83
2021,12,03,06,38,1027.84
2021,12,03,06,39,1027.89
2021,12,03,06,40,1027.90
2021,12,03,06,41,1027.96
2021,12,03,06,42,1028.03
2021,12,03,06,43,1028.07
2021,12,03,06,44,1028.07
2021,12,03,06,45,1028.07
2021,12,03,06,46,1028.07
2021,12,03,06,47,1027.99
2021,12,03,06,48,1027.89
2021,12,03,06,49,1027.93
2021,12,03,06,50,1027.94
2021,12,03,06,51,1027.91
2021,12,03,06,52,1027.90
2021,12,03,06,53,1027.96
2021,12,03,06,54,1028.00
2021,12,03,06,55,1028.01
2021,12,03,06,56,1027.98
2021,12,03,06,57,1028.03
2021,12,03,06,58,1028.06
2021,12,03,06,59,1028.13
2021,12,03,07,00,1028.12
2021,12,03,07,01,1028.03
2021,12,03,07,02,1027.98
2021,12,03,07,03,1027.91
2021,12,03,07,04,1027.82
2021,12,03,07,05,1027.80
2021,12,03,07,06,1027.78
2021,12,03,07,07,1027.69
2021,12,03,07,08,1027.64
2021,12,03,07,09,1027.63
2021,12,03,07,10,1027.69
2021,12,03,07,11,1027.78
2021,12,03,07,12,1027.80
2021,12,03,07,13,1027.78
2021,12,03,07,14,1027.85
2021,12,03,07,15,1027.85
2021,12,03,07,16,1027.84
2021,12,03,07,17,1027.84
2021,12,03,07,18,1027.79
2021,12,03,07,19,1027.75
2021,12,03,07,20,1027.74
2021,12,03,07,21,1027.74
2021,12,03,07,22,1027.68
2021,12,03,07,23,1027.67
2021,12,03,07,24,1027.64
2021,12,03,07,25,1027.63
2021,12,03,07,26,1027.63
2021,12,03,07,27,1027.63
2021,12,03,07,28,1027.63
2021,12,03,07,29,1027.63
2021,12,03,07,30,1027.63
2021,12,03,07,31,1027.63
2021,12,03,07,32,1027.63
2021,12,03,07,33,1023.13
2021,12,03,07,34,1022.01
2021,12,03,07,35,1022.01
2021,12,03,07,36,1022.01
2021,12,03,07,37,1022.01
2021,12,03,07,38,1022.01
2021,12,03,07,39,1025.45
2021,12,03,07,40,1026.31
2021,12,03,07,41,1026.31
2021,12,03,07,42,1026.31
2021,12,03,07,43,1027.48
2021,12,03,07,44,1027.79
2021,12,03,07,45,1027.80
2021,12,03,07,46,1027.78
2021,12,03,07,47,1027.77
2021,12,03,07,48,1027.75
2021,12,03,07,49,1027.71
2021,12,03,07,50,1027.68
2021,12,03,07,51,1027.69
2021,12,03,07,52,1027.73
2021,12,03,07,53,1027.76
2021,12,03,07,54,1027.75
2021,12,03,07,55,1027.71
2021,12,03,07,56,1027.76
2021,12,03,07,57,1027.75
2021,12,03,07,58,1027.74
2021,12,03,07,59,1027.74
2021,12,03,08,00,1027.74
2021,12,03,08,01,1027.74
2021,12,03,08,02,1027.74
2021,12,03,08,03,1027.74
2021,12,03,08,04,1027.74
2021,12,03,08,05,1027.74
2021,12,03,08,06,1027.74
2021,12,03,08,07,1027.74
2021,12,03,08,08,1027.74
2021,12,03,08,09,1027.74
2021,12,03,08,10,1027.74
2021,12,03,08,11,1027.74
2021,12,03,08,12,1027.74
2021,12,03,08,13,1027.74
2021,12,03,08,14,1027.74
2021,12,03,08,15,1027.74
2021,12,03,08,16,1027.74
2021,12,03,08,17,1027.74
2021,12,03,08,18,1027.74
2021,12,03,08,19,1027.74
2021,12,03,08,20,1027.74
2021,12,03,08,21,1021.44
2021,12,03,08,22,1019.34
2021,12,03,08,23,1019.34
2021,12,03,08,24,1019.34
2021,12,03,08,25,1019.34
2021,12,03,08,26,1019.34
2021,12,03,08,27,1019.34
2021,12,03,08,28,1019.34
2021,12,03,08,29,1019.34
2021,12,03,08,30,1019.34
2021,12,03,08,31,1019.34
2021,12,03,08,32,1019.34
2021,12,03,08,33,1019.34
2021,12,03,08,34,1019.34
2021,12,03,08,35,1019.34
2021,12,03,08,36,1023.16
2021,12,03,08,37,1024.11
2021,12,03,08,38,1024.11
2021,12,03,08,39,1024.11
2021,12,03,08,40,1024.11
2021,12,03,08,41,1024.11
2021,12,03,08,42,1025.77
2021,12,03,08,43,1026.18
2021,12,03,08,44,1026.18
2021,12,03,08,45,1023.76
2021,12,03,08,46,1023.16
2021,12,03,08,47,1023.16
2021,12,03,08,48,1023.16
2021,12,03,08,49,1017.10
2021,12,03,08,50,1015.58
2021,12,03,08,51,1015.58
2021,12,03,08,52,1013.60
2021,12,03,08,53,1013.11
2021,12,03,08,54,1013.11
2021,12,03,08,55,1013.11
2021,12,03,08,56,1013.11
2021,12,03,08,57,1013.11
2021,12,03,08,58,1009.73
2021,12,03,08,59,1008.60
2021,12,03,09,00,1008.60
2021,12,03,09,01,1008.60
2021,12,03,09,02,1008.60
2021,12,03,09,03,1008.60
2021,12,03,09,04,1008.60
2021,12,03,09,05,1008.60
2021,12,03,09,06,1008.60
2021,12,03,09,07,1008.60
2021,12,03,09,08,1008.60
2021,12,03,09,09,1008.60
2021,12,03,09,10,1006.85
2021,12,03,09,11,1006.27
2021,12,03,09,12,1006.27
2021,12,03,09,13,1006.27
2021,12,03,09,14,1009.81
2021,12,03,09,15,1010.70
2021,12,03,09,16,1010.70
2021,12,03,09,17,1010.70
2021,12,03,09,18,1010.70
2021,12,03,09,19,1010.70
2021,12,03,09,20,1010.70
2021,12,03,09,21,1010.70
2021,12,03,09,22,1010.70
2021,12,03,09,23,1010.70
2021,12,03,09,24,1010.70
2021,12,03,09,25,1010.70
2021,12,03,09,26,1010.70
2021,12,03,09,27,1010.70
2021,12,03,09,28,1010.70
2021,12,03,09,29,1010.70
2021,12,03,09,30,1009.24
2021,12,03,09,31,1008.87
2021,12,03,09,32,1008.87
2021,12,03,09,33,1008.87
2021,12,03,09,34,1007.40
2021,12,03,09,35,1006.91
2021,12,03,09,36,1006.91
2021,12,03,09,37,1006.91
2021,12,03,09,38,1006.91
2021,12,03,09,39,1006.91
2021,12,03,09,40,1006.91
2021,12,03,09,41,1006.91
2021,12,03,09,42,1006.91
2021,12,03,09,43,1006.91
2021,12,03,09,44,1006.91
2021,12,03,09,45,1006.91
2021,12,03,09,46,1006.91
2021,12,03,09,47,1006.91
2021,12,03,09,48,1006.91
2021,12,03,09,49,1006.91
2021,12,03,09,50,1006.91
2021,12,03,09,51,1006.91
2021,12,03,09,52,1006.91
2021,12,03,09,53,1006.91
2021,12,03,09,54,1006.91
2021,12,03,09,55,1006.91
2021,12,03,09,56,1002.53
2021,12,03,09,57,1000.95
2021,12,03,09,58,1000.81
2021,12,03,09,59,1000.81
2021,12,03,10,00,1000.81
2021,12,03,10,01,1000.81
2021,12,03,10,02,1000.81
2021,12,03,10,03,1000.81
2021,12,03,10,04,1000.81
2021,12,03,10,05,1000.81
2021,12,03,10,06,1000.81
2021,12,03,10,07,1000.81
2021,12,03,10,08,1000.81
2021,12,03,10,09,1013.70
2021,12,03,10,10,1017.14
2021,12,03,10,11,1017.14
2021,12,03,10,12,1017.14
2021,12,03,10,13,1016.22
2021,12,03,10,14,1015.92
2021,12,03,10,15,1015.92
2021,12,03,10,16,1015.92
2021,12,03,10,17,1015.92
2021,12,03,10,18,1015.92
2021,12,03,10,19,1015.92
2021,12,03,10,20,1015.92
2021,12,03,10,21,1015.92
2021,12,03,10,22,1015.92
2021,12,03,10,23,1015.92
2021,12,03,10,24,1015.92
2021,12,03,10,25,1015.92
2021,12,03,10,26,1015.92
2021,12,03,10,27,1015.92
2021,12,03,10,28,1015.92
2021,12,03,10,29,1015.92
2021,12,03,10,30,1015.82
2021,12,03,10,31,1015.78
2021,12,03,10,32,1015.78
2021,12,03,10,33,1015.78
2021,12,03,10,34,1015.78
2021,12,03,10,35,1014.95
2021,12,03,10,36,1014.73
2021,12,03,10,37,1014.73
2021,12,03,10,38,1014.73
2021,12,03,10,39,1014.73
2021,12,03,10,40,1014.73
2021,12,03,10,41,1014.73
2021,12,03,10,42,1014.73
2021,12,03,10,43,1014.73
2021,12,03,10,44,1014.73
2021,12,03,10,45,1014.73
2021,12,03,10,46,1014.73
2021,12,03,10,47,1011.22
2021,12,03,10,48,1009.80
2021,12,03,10,49,1009.75
2021,12,03,10,50,1008.84
2021,12,03,10,51,1008.53
2021,12,03,10,52,1008.53
2021,12,03,10,53,1008.53
2021,12,03,10,54,1008.53
2021,12,03,10,55,1008.53
2021,12,03,10,56,1008.53
2021,12,03,10,57,1008.53
2021,12,03,10,58,1009.37
2021,12,03,10,59,1009.65
2021,12,03,11,00,1009.65
2021,12,03,11,01,1009.65
2021,12,03,11,02,1009.65
2021,12,03,11,03,1009.65
2021,12,03,11,04,1009.65
2021,12,03,11,05,1009.65
2021,12,03,11,06,1009.65
2021,12,03,11,07,1009.65
2021,12,03,11,08,1009.65
2021,12,03,11,09,1009.65
2021,12,03,11,10,1009.65
2021,12,03,11,11,1009.65
2021,12,03,11,12,1009.65
2021,12,03,11,13,1009.65
2021,12,03,11,14,1009.65
2021,12,03,11,15,1009.65
2021,12,03,11,16,1009.65
2021,12,03,11,17,1009.65
2021,12,03,11,18,1009.65
2021,12,03,11,19,1009.65
2021,12,03,11,20,1009.65
2021,12,03,11,21,991.35
2021,12,03,11,22,983.51
2021,12,03,11,23,983.51
2021,12,03,11,24,983.51
2021,12,03,11,25,983.51
2021,12,03,11,26,983.51
2021,12,03,11,27,983.51
2021,12,03,11,28,981.35
2021,12,03,11,29,980.77
2021,12,03,11,30,980.77
2021,12,03,11,31,980.77
2021,12,03,11,32,980.77
2021,12,03,11,33,980.77
2021,12,03,11,34,980.77
2021,12,03,11,35,980.77
2021,12,03,11,36,980.77
2021,12,03,11,37,980.77
2021,12,03,11,38,980.77
2021,12,03,11,39,980.77
2021,12,03,11,40,980.77
2021,12,03,11,41,980.77
2021,12,03,11,42,980.77
2021,12,03,11,43,980.77
2021,12,03,11,44,980.77
2021,12,03,11,45,980.77
2021,12,03,11,46,980.77
2021,12,03,11,47,980.77
2021,12,03,11,48,980.77
2021,12,03,11,49,980.77
2021,12,03,11,50,980.77
2021,12,03,11,51,980.77
2021,12,03,11,52,980.77
2021,12,03,11,53,980.77
2021,12,03,11,54,980.77
2021,12,03,11,55,980.77
2021,12,03,11,56,980.77
2021,12,03,11,57,980.77
2021,12,03,11,58,980.77
2021,12,03,11,59,980.77
2021,12,03,12,00,980.77
2021,12,03,12,01,980.77
2021,12,03,12,02,980.77
2021,12,03,12,03,980.77
2021,12,03,12,04,980.77
2021,12,03,12,05,980.77
2021,12,03,12,06,980.77
2021,12,03,12,07,980.77
2021,12,03,12,08,980.77
2021,12,03,12,09,980.77
2021,12,03,12,10,980.77
2021,12,03,12,11,980.77
2021,12,03,12,12,980.77
2021,12,03,12,13,980.77
2021,12,03,12,14,980.77
2021,12,03,12,15,980.77
2021,12,03,12,16,980.77
2021,12,03,12,17,980.77
2021,12,03,12,18,980.77
2021,12,03,12,19,980.77
2021,12,03,12,20,980.77
2021,12,03,12,21,980.77
2021,12,03,12,22,980.77
2021,12,03,12,23,980.77
2021,12,03,12,24,980.77
2021,12,03,12,25,980.77
2021,12,03,12,26,980.77
2021,12,03,12,27,980.77
2021,12,03,12,28,980.77
2021,12,03,12,29,980.77
2021,12,03,12,30,980.77
2021,12,03,12,31,980.77
2021,12,03,12,32,980.77
2021,12,03,12,33,980.77
2021,12,03,12,34,980.77
2021,12,03,12,35,980.77
2021,12,03,12,36,980.77
2021,12,03,12,37,980.77
2021,12,03,12,38,980.77
2021,12,03,12,39,980.77
2021,12,03,12,40,980.77
2021,12,03,12,41,980.77
2021,12,03,12,42,980.77
2021,12,03,12,43,980.77
2021,12,03,12,44,980.77
2021,12,03,12,45,980.77
2021,12,03,12,46,980.77
2021,12,03,12,47,980.77
2021,12,03,12,48,980.77
2021,12,03,12,49,980.77
2021,12,03,12,50,980.77
2021,12,03,12,51,980.77
2021,12,03,12,52,980.77
2021,12,03,12,53,980.77
2021,12,03,12,54,980.77
2021,12,03,12,55,980.77
2021,12,03,12,56,980.77
2021,12,03,12,57,980.77
2021,12,03,12,58,980.77
2021,12,03,12,59,980.77
2021,12,03,13,00,980.77
2021,12,03,13,01,980.77
2021,12,03,13,02,980.77
2021,12,03,13,03,980.77
2021,12,03,13,04,980.77
2021,12,03,13,05,980.77
2021,12,03,13,06,980.77
2021,12,03,13,07,980.77
2021,12,03,13,08,980.77
2021,12,03,13,09,980.77
2021,12,03,13,10,980.77
2021,12,03,13,11,980.77
2021,12,03,13,12,980.77
2021,12,03,13,13,980.77
2021,12,03,13,14,980.77
2021,12,03,13,15,980.77
2021,12,03,13,16,980.77
2021,12,03,13,17,980.77
2021,12,03,13,18,980.77
2021,12,03,13,19,980.77
2021,12,03,13,20,980.77
2021,12,03,13,21,980.77
2021,12,03,13,22,980.77
2021,12,03,13,23,980.77
2021,12,03,13,24,980.77
2021,12,03,13,25,980.77
2021,12,03,13,26,980.77
2021,12,03,13,27,980.77
2021,12,03,13,28,980.77
2021,12,03,13,29,980.77
2021,12,03,13,30,980.77
2021,12,03,13,31,980.77
2021,12,03,13,32,980.77
2021,12,03,13,33,980.77
2021,12,03,13,34,980.77
2021,12,03,13,35,980.77
2021,12,03,13,36,980.77
2021,12,03,13,37,980.77
2021,12,03,13,38,980.77
2021,12,03,13,39,980.77
2021,12,03,13,40,980.77
2021,12,03,13,41,980.77
2021,12,03,13,42,980.77
2021,12,03,13,43,980.77
2021,12,03,13,44,980.77
2021,12,03,13,45,980.77
2021,12,03,13,46,980.77
2021,12,03,13,47,980.77
2021,12,03,13,48,980.77
2021,12,03,13,49,980.77
2021,12,03,13,50,980.77
2021,12,03,13,51,980.77
2021,12,03,13,52,980.77
2021,12,03,13,53,980.77
2021,12,03,13,54,980.77
2021,12,03,13,55,980.77
2021,12,03,13,56,980.77
2021,12,03,13,57,980.77
2021,12,03,13,58,980.77
2021,12,03,13,59,980.77
2021,12,03,14,00,980.77
2021,12,03,14,01,980.77
2021,12,03,14,02,980.77
2021,12,03,14,03,980.77
2021,12,03,14,04,980.77
2021,12,03,14,05,980.77
2021,12,03,14,06,980.77
2021,12,03,14,07,980.77
2021,12,03,14,08,980.77
2021,12,03,14,09,980.77
2021,12,03,14,10,980.77
2021,12,03,14,11,980.77
2021,12,03,14,12,980.77
2021,12,03,14,13,980.77
2021,12,03,14,14,980.77
2021,12,03,14,15,980.77
2021,12,03,14,16,980.77
2021,12,03,14,17,980.77
2021,12,03,14,18,980.77
2021,12,03,14,19,980.77
2021,12,03,14,20,980.77
2021,12,03,14,21,980.77
2021,12,03,14,22,980.77
2021,12,03,14,23,980.77
2021,12,03,14,24,980.77
2021,12,03,14,25,980.77
2021,12,03,14,26,980.77
2021,12,03,14,27,980.77
2021,12,03,14,28,980.77
2021,12,03,14,29,980.77
2021,12,03,14,30,980.77
2021,12,03,14,31,980.77
2021,12,03,14,32,980.77
2021,12,03,14,33,980.77
2021,12,03,14,34,980.77
2021,12,03,14,35,980.77
2021,12,03,14,36,980.77
2021,12,03,14,37,980.77
2021,12,03,14,38,980.77
2021,12,03,14,39,980.77
2021,12,03,14,40,980.77
2021,12,03,14,41,980.77
2021,12,03,14,42,980.77
2021,12,03,14,43,980.77
2021,12,03,14,44,980.77
2021,12,03,14,45,980.77
2021,12,03,14,46,980.77
2021,12,03,14,47,980.77
2021,12,03,14,48,980.77
2021,12,03,14,49,980.77
2021,12,03,14,50,980.77
2021,12,03,14,51,980.77
2021,12,03,14,52,980.77
2021,12,03,14,53,980.77
2021,12,03,14,54,980.77
2021,12,03,14,55,980.77
2021,12,03,15,16,943.58
2021,12,03,15,17,943.58
2021,12,03,15,18,943.58
2021,12,03,15,19,943.58
2021,12,03,15,20,943.58
2021,12,03,15,21,943.58
2021,12,03,15,22,943.58
2021,12,03,15,23,943.58
2021,12,03,15,24,943.58
2021,12,03,15,25,943.58
2021,12,03,15,26,943.58
2021,12,03,15,27,943.58
2021,12,03,15,28,943.58
2021,12,03,15,29,943.58
2021,12,03,15,30,943.58
2021,12,03,15,31,943.58
2021,12,03,15,32,943.58
2021,12,03,15,33,943.58
2021,12,03,15,34,943.58
2021,12,03,15,35,943.58
2021,12,03,15,36,943.58
2021,12,03,15,37,943.58
2021,12,03,15,38,943.58
2021,12,03,15,39,943.58
2021,12,03,15,40,943.58
2021,12,03,15,41,943.58
2021,12,03,15,42,943.58
2021,12,03,15,43,943.58
2021,12,03,15,44,943.58
2021,12,03,15,45,943.58
2021,12,03,15,46,943.58
2021,12,03,15,47,943.58
2021,12,03,15,48,943.58
2021,12,03,15,49,943.58
2021,12,03,15,50,943.58
2021,12,03,15,51,943.58
2021,12,03,15,52,943.58
2021,12,03,15,53,943.58
2021,12,03,15,54,943.58
2021,12,03,15,55,943.58
2021,12,03,15,56,943.58
2021,12,03,15,57,943.58
2021,12,03,15,58,960.98
2021,12,03,15,59,968.44
2021,12,03,16,00,968.44
2021,12,03,16,01,968.44
2021,12,03,16,02,968.44
2021,12,03,16,03,968.44
2021,12,03,16,04,968.44
2021,12,03,16,05,968.44
2021,12,03,16,06,968.44
2021,12,03,16,07,968.44
2021,12,03,16,08,968.44
2021,12,03,16,09,968.44
2021,12,03,16,10,990.17
2021,12,03,16,11,999.49
2021,12,03,16,12,999.49
2021,12,03,16,13,999.49
2021,12,03,16,14,999.49
2021,12,03,16,15,999.49
2021,12,03,16,16,998.38
2021,12,03,16,17,997.90
2021,12,03,16,18,995.68
2021,12,03,16,19,994.89
2021,12,03,16,20,994.89
2021,12,03,16,21,994.89
2021,12,03,16,22,994.89
2021,12,03,16,23,994.89
2021,12,03,16,24,996.68
2021,12,03,16,25,997.50
2021,12,03,16,26,997.50
2021,12,03,16,27,997.50
2021,12,03,16,28,998.54
2021,12,03,16,29,998.99
2021,12,03,16,30,998.99